Location: Munkebjergskolens Observatorium
(55.3864°N, 10.3987°E)
Time: 16:27:43
(UTC+02:00)

NOAA 18 - Pass Details

Date: 25 March 2023
Orbit: 838 x 860 km, 98.9° (Epoch: 02 June)

Event Time Altitude Azimuth Distance (km) Brightness Sun altitude
Exits shadow 21:52:26 62° 164° (SSE) 968 5.2 -24.8°
Maximum altitude 21:53:27 89° 249° (WSW) 869 5.1 -24.9°
Drops below altitude 10° 21:59:04 10° 343° (NNW) 2,513 8.5 -25.4°
Sets 22:01:27 0° 344° (NNW) 3,454 9.4 -25.6°
